This is the latest recevied weather packets stored in our database for station/object IW2NIA-3. If no packets are shown the sender has not sent any weather packets the latest 10 day(s).
| Time | Temp. | Humidity | Pressure | Rain* | Wind** | Luminosity | Snow |
|---|---|---|---|---|---|---|---|
| 1787942908 | 23.89° C | 79% | 1011.9 hPa | 0 mm | - | - | - |
| 1787942008 | 23.89° C | 80% | 1011.9 hPa | 0 mm | - | - | - |
| 1787941126 | 23.89° C | 80% | 1012 hPa | 0 mm | - | - | - |
| 1787940222 | 23.89° C | 79% | 1012 hPa | 0 mm | - | - | - |
| 1787939314 | 23.89° C | 78% | 1012.3 hPa | 0 mm | - | - | - |
| 1787938410 | 24.44° C | 76% | 1012.4 hPa | 0 mm | - | - | - |
| 1787937521 | 25° C | 74% | 1012.5 hPa | 0 mm | - | - | - |
| 1787936619 | 25° C | 72% | 1012 hPa | 0 mm | - | - | - |
| 1787935706 | 26.11° C | 71% | 1011.8 hPa | 0 mm | - | - | - |
| 1787934821 | 26.11° C | 72% | 1012.1 hPa | 0 mm | - | - | - |
| 1787933922 | 26.11° C | 72% | 1011.2 hPa | 0 mm | - | - | - |
| 1787933013 | 27.22° C | 70% | 1012.1 hPa | 0 mm | - | - | - |
| 1787932123 | 30° C | 62% | 1012 hPa | 0 mm | - | - | - |
| 1787931216 | 31.11° C | 58% | 1012 hPa | 0 mm | - | - | - |
| 1787930309 | 30° C | 64% | 1012.1 hPa | 0 mm | - | - | - |
| 1787929408 | 30° C | 64% | 1011.5 hPa | 0 mm | - | - | - |
| 1787928516 | 30° C | 65% | 1011.6 hPa | 0 mm | - | - | - |
| 1787927618 | 29.44° C | 69% | 1012.5 hPa | 0 mm | - | - | - |
| 1787926709 | 30° C | 66% | 1012.6 hPa | 0 mm | - | - | - |
| 1787925824 | 30° C | 61% | 1013.1 hPa | 0 mm | - | - | - |
| 1787924919 | 30.56° C | 62% | 1013.4 hPa | 0 mm | - | - | - |
| 1787924021 | 30° C | 61% | 1013.2 hPa | 0 mm | - | - | - |
| 1787923113 | 30° C | 59% | 1013.5 hPa | 0 mm | - | - | - |
| 1787922211 | 30.56° C | 61% | 1013.4 hPa | 0 mm | - | - | - |
| 1787921310 | 30.56° C | 62% | 1013.9 hPa | 0 mm | - | - | - |
* Rain latest hour (hover to see other rain measurements)
** Current wind speed in m/s (hover to see current wind gust speed)